TimeEST,TemperatureF,Dew PointF,Humidity,Sea Level PressureIn,VisibilityMPH,Wind Direction,Wind SpeedMPH,Gust SpeedMPH,PrecipitationIn,Events,Conditions,WindDirDegrees,DateUTC
12:51 AM,42.1,36.0,79,29.87,10.0,NW,10.4,17.3,N/A,,Overcast,320,2012-11-08 05:51:00
1:51 AM,41.0,36.0,82,29.87,10.0,NNW,9.2,-,N/A,,Mostly Cloudy,330,2012-11-08 06:51:00
2:34 AM,39.2,35.6,87,29.87,10.0,NW,10.4,18.4,N/A,,Overcast,310,2012-11-08 07:34:00
2:51 AM,39.9,35.1,83,29.87,10.0,WNW,8.1,-,N/A,,Overcast,300,2012-11-08 07:51:00
3:11 AM,41.0,35.6,81,29.87,10.0,Variable,6.9,-,N/A,,Overcast,0,2012-11-08 08:11:00
3:51 AM,39.9,35.1,83,29.88,10.0,NW,9.2,16.1,N/A,,Overcast,310,2012-11-08 08:51:00
4:51 AM,41.0,35.1,79,29.89,10.0,NNW,9.2,18.4,0.00,,Overcast,330,2012-11-08 09:51:00
5:51 AM,39.9,34.0,79,29.91,10.0,NNW,9.2,18.4,N/A,,Mostly Cloudy,330,2012-11-08 10:51:00
6:51 AM,41.0,34.0,76,29.93,10.0,NNW,9.2,-,N/A,,Overcast,330,2012-11-08 11:51:00
7:18 AM,42.8,32.0,66,29.94,10.0,NW,4.6,-,N/A,,Overcast,320,2012-11-08 12:18:00
7:51 AM,42.1,28.9,60,29.95,10.0,NW,5.8,-,N/A,,Overcast,310,2012-11-08 12:51:00
8:51 AM,45.0,25.0,46,29.96,10.0,NW,6.9,16.1,N/A,,Overcast,310,2012-11-08 13:51:00
9:51 AM,46.9,24.1,41,29.95,10.0,WNW,8.1,-,N/A,,Overcast,300,2012-11-08 14:51:00
10:51 AM,48.9,24.1,38,29.94,10.0,Variable,5.8,18.4,N/A,,Mostly Cloudy,0,2012-11-08 15:51:00
11:51 AM,52.0,21.0,30,29.93,10.0,NNW,10.4,18.4,N/A,,Clear,340,2012-11-08 16:51:00
12:51 PM,55.0,18.0,23,29.90,10.0,Variable,5.8,-,N/A,,Clear,0,2012-11-08 17:51:00
1:51 PM,55.0,16.0,22,29.89,10.0,Variable,6.9,17.3,N/A,,Clear,0,2012-11-08 18:51:00
2:51 PM,55.9,10.9,17,29.90,10.0,NW,11.5,20.7,N/A,,Clear,320,2012-11-08 19:51:00
3:51 PM,55.9,12.9,18,29.91,10.0,WNW,9.2,16.1,N/A,,Clear,300,2012-11-08 20:51:00
4:51 PM,53.1,16.0,23,29.92,10.0,Variable,3.5,-,N/A,,Clear,0,2012-11-08 21:51:00
5:51 PM,50.0,23.0,35,29.94,10.0,Calm,Calm,-,N/A,,Clear,0,2012-11-08 22:51:00
6:51 PM,52.0,15.1,23,29.97,10.0,NW,4.6,-,N/A,,Clear,320,2012-11-08 23:51:00
7:51 PM,51.1,17.1,26,29.99,10.0,NW,6.9,-,N/A,,Clear,320,2012-11-09 00:51:00
8:51 PM,50.0,19.0,29,30.01,10.0,NNW,8.1,-,N/A,,Clear,330,2012-11-09 01:51:00
9:51 PM,48.9,19.0,31,30.03,10.0,NW,9.2,-,N/A,,Clear,320,2012-11-09 02:51:00
10:51 PM,46.9,21.0,36,30.03,10.0,Variable,6.9,-,N/A,,Clear,0,2012-11-09 03:51:00
11:51 PM,46.0,24.1,42,30.05,10.0,NW,8.1,-,N/A,,Clear,310,2012-11-09 04:51:00